This is the latest recevied weather packets stored in our database for station/object N8TWM-13. If no packets are shown the sender has not sent any weather packets the latest 10 day(s).
| Time | Temp. | Humidity | Pressure | Rain* | Wind** | Luminosity | Snow |
|---|---|---|---|---|---|---|---|
| 1777985069 | 15.56° C | 82% | 1007.2 hPa | 0 mm | - | 292 W/m² | - |
| 1777984765 | 15° C | 82% | 1007 hPa | 0 mm | - | 223 W/m² | - |
| 1777984462 | 15° C | 83% | 1007.3 hPa | 0 mm | - | 111 W/m² | - |
| 1777984158 | 15° C | 83% | 1007.1 hPa | 0 mm | - | 94 W/m² | - |
| 1777983856 | 14.44° C | 83% | 1007.1 hPa | 0 mm | - | 91 W/m² | - |
| 1777983552 | 14.44° C | 83% | 1007 hPa | 0 mm | - | 63 W/m² | - |
| 1777983249 | 14.44° C | 83% | 1006.9 hPa | 0 mm | - | 38 W/m² | - |
| 1777982945 | 14.44° C | 83% | 1006.9 hPa | 0 mm | - | 30 W/m² | - |
| 1777982642 | 14.44° C | 83% | 1007 hPa | 0 mm | - | 28 W/m² | - |
| 1777982340 | 14.44° C | 83% | 1006.8 hPa | 0 mm | - | 34 W/m² | - |
| 1777982037 | 14.44° C | 83% | 1006.3 hPa | 0 mm | - | 29 W/m² | - |
| 1777981735 | 14.44° C | 83% | 1006.2 hPa | 0 mm | - | 32 W/m² | - |
| 1777981431 | 14.44° C | 83% | 1006.2 hPa | 0 mm | - | 46 W/m² | - |
| 1777981128 | 14.44° C | 83% | 1006.1 hPa | 0 mm | - | 42 W/m² | - |
| 1777980825 | 14.44° C | 83% | 1005.5 hPa | 0 mm | - | 28 W/m² | - |
| 1777980520 | 14.44° C | 83% | 1005.9 hPa | 0 mm | - | 35 W/m² | - |
| 1777980218 | 14.44° C | 84% | 1006.1 hPa | 0 mm | - | 36 W/m² | - |
| 1777979913 | 13.89° C | 84% | 1005.9 hPa | 0 mm | - | 15 W/m² | - |
| 1777979609 | 13.89° C | 84% | 1006 hPa | 0 mm | - | 6 W/m² | - |
| 1777979305 | 13.89° C | 85% | 1006.2 hPa | 0 mm | - | 3 W/m² | - |
| 1777979003 | 13.89° C | 85% | 1006 hPa | 0 mm | - | 3 W/m² | - |
| 1777978699 | 13.89° C | 85% | 1006.3 hPa | 0 mm | - | 4 W/m² | - |
| 1777978395 | 13.89° C | 85% | 1006.1 hPa | 0 mm | - | 2 W/m² | - |
| 1777978091 | 13.89° C | 85% | 1006.1 hPa | 0 mm | - | 2 W/m² | - |
| 1777977790 | 13.89° C | 84% | 1006.2 hPa | 0 mm | - | 0 W/m² | - |
* Rain latest hour (hover to see other rain measurements)
** Current wind speed in m/s (hover to see current wind gust speed)